Probability
0 0 0 0 1 0 0 1 1 0 0 0 0 0 0 0 0 0 0 0 0 1 2 3 3 3 3 3 1 0 0 0 0 0 0 0 0 1 2 2 2 1 0
0 0 0 0 1 0 0 1 2 1 0 0 1 1 1 0 0 0 0 0 0 1 2 3 3 3 3 3 2 1 0 0 0 0 0 0 0 0 1 2 2 1 0
0 0 0 0 0 0 0 1 2 1 0 0 1 2 1 0 0 0 0 0 0 0 1 3 3 3 3 3 3 2 1 0 0 0 0 0 0 0 1 2 2 2 1
1 0 0 0 0 0 0 0 1 1 0 0 1 1 1 0 0 0 0 0 0 0 1 2 3 3 3 3 3 4 3 2 1 1 1 0 0 0 1 2 3 3 3
2 1 0 0 0 0 0 0 0 0 0 0 0 0 0 0 0 0 0 0 0 0 0 1 1 2 3 4 5 5 5 5 4 4 3 1 1 1 1 2 3 3 3
3 2 1 1 2 1 1 1 1 0 0 0 0 0 0 0 0 0 0 0 0 0 0 0 0 1 3 5 6 6 6 6 6 6 5 3 2 2 2 3 3 4 4
5 4 3 3 3 3 2 2 2 1 0 1 1 0 0 0 0 0 0 0 0 0 0 0 0 1 2 4 5 6 6 5 5 6 5 4 3 3 3 3 4 5 5
6 6 4 3 3 3 3 3 3 2 2 2 2 1 1 0 0 0 0 0 0 1 0 0 0 0 1 1 2 3 5 5 5 6 5 4 3 3 3 3 3 4 5
6 6 4 3 3 3 3 3 3 3 3 3 3 3 2 1 0 0 0 0 0 0 0 0 0 0 0 0 0 1 3 5 6 7 7 6 5 5 5 4 3 3 4
6 6 4 3 3 4 4 3 3 3 3 3 3 3 3 2 1 0 0 0 0 0 0 0 0 0 1 1 1 0 1 3 5 6 7 8 7 7 7 5 3 3 3
6 6 5 4 4 5 5 4 3 3 3 4 4 4 4 3 2 1 1 0 0 0 0 0 0 1 1 2 2 2 1 1 2 4 6 7 8 8 7 4 2 2 2
6 6 5 3 3 4 5 5 5 5 5 6 6 6 6 5 5 3 2 1 0 0 0 0 0 1 1 2 4 5 4 3 2 3 4 6 7 7 5 3 2 1 1
4 4 3 2 1 3 4 6 7 8 8 8 7 7 7 7 7 5 4 2 1 0 0 0 0 0 1 1 3 5 6 5 3 2 2 4 5 6 4 2 1 0 0
4 4 3 1 1 2 4 7 9 10 10 10 9 9 10 9 9 7 5 4 3 1 0 0 0 0 0 1 1 2 4 5 3 1 1 1 2 4 3 3 2 1 0
5 6 6 4 2 2 4 7 9 10 11 12 12 12 11 11 10 8 6 6 5 2 0 0 0 0 1 2 2 2 3 2 1 0 0 0 0 1 1 2 2 1 0
8 8 8 7 6 5 6 8 10 11 11 12 12 12 11 11 10 9 8 7 7 5 2 1 0 0 1 2 3 3 3 2 2 1 1 0 0 0 0 1 1 0 0
10 9 8 9 9 9 9 10 11 11 11 10 11 12 12 11 11 10 9 8 9 8 6 3 1 1 1 1 2 3 2 3 3 3 1 0 0 0 0 0 0 0 0
7 6 5 6 7 8 8 9 10 10 9 10 11 12 12 11 11 10 9 9 9 9 8 6 3 2 2 1 2 2 2 2 3 2 1 0 0 0 0 0 0 0 0
6 6 5 5 5 6 6 6 6 6 7 8 10 10 10 10 10 10 9 8 8 8 8 7 5 4 3 2 2 2 2 3 3 2 1 0 0 0 0 0 0 0 0
9 9 8 7 8 8 7 6 5 5 5 6 7 7 8 9 10 9 7 7 7 7 8 7 6 5 4 3 3 3 4 5 5 5 3 2 1 1 0 0 0 0 0
11 12 12 11 11 10 9 8 7 7 6 5 4 4 5 7 8 7 5 4 5 6 7 7 7 5 4 3 4 4 5 6 6 6 6 5 3 1 0 0 0 0 0
13 13 14 13 10 8 7 7 8 8 6 4 3 3 4 5 6 5 2 2 3 3 4 5 5 4 3 3 3 4 4 4 4 5 5 5 3 2 0 0 0 0 0
16 15 15 13 9 7 7 6 6 7 7 5 4 4 4 6 6 4 2 1 1 1 1 2 2 1 2 2 2 2 2 2 2 2 3 3 3 2 1 0 0 0 0
16 15 14 12 8 6 6 5 5 7 8 7 6 5 5 7 8 5 3 2 1 0 0 0 0 0 1 1 1 1 1 1 1 1 1 2 2 1 1 0 0 0 0
14 14 13 10 8 6 5 4 5 8 9 8 7 6 5 6 6 4 2 1 1 0 0 0 0 0 0 0 0 0 1 1 1 0 0 1 1 0 0 0 0 0 0
13 13 12 9 7 6 4 3 5 8 9 9 8 6 4 3 3 2 1 0 0 0 0 0 0 0 0 0 0 0 0 1 0 0 0 0 0 0 0 1 1 1 0
Wind_Speed
2 2 2 1 1 2 2 1 1 1 2 2 2 3 3 3 3 3 3 9 10 10 10 11 10 10 10 9 9 9 9 9 9 8 8 8 8 8 8 8 8 8 8
2 2 2 2 1 1 2 2 2 2 2 2 2 3 3 3 3 3 3 5 9 10 10 10 10 10 10 10 10 10 10 10 10 9 8 8 8 8 8 8 8 8 8
3 2 2 2 1 1 2 2 1 1 2 2 2 2 2 3 4 4 3 2 3 7 8 9 9 9 10 10 10 10 10 10 10 10 9 9 8 8 8 8 8 7 7
3 2 2 1 1 2 2 2 1 2 1 1 1 1 1 2 3 4 3 3 3 3 6 9 9 9 10 11 11 11 11 10 10 10 9 9 8 8 8 8 8 7 7
3 2 2 1 1 2 1 1 1 2 1 1 1 1 1 2 2 4 3 4 3 3 3 6 10 10 10 11 11 12 11 11 10 10 10 10 9 8 7 7 8 8 8
3 2 2 1 1 2 1 1 1 1 1 1 1 1 0 1 2 2 4 3 3 4 4 4 4 5 8 8 9 10 11 11 11 11 11 10 9 8 8 7 7 7 6
2 2 2 2 2 1 1 1 1 1 0 1 2 2 2 1 0 1 2 2 3 3 3 3 2 2 3 6 7 8 9 10 10 10 10 9 9 8 8 7 7 7 6
2 2 2 2 1 1 1 1 1 1 0 1 2 1 1 3 2 1 1 2 3 2 3 4 3 3 2 2 3 6 7 8 9 9 9 9 8 8 8 8 7 7 7
2 2 2 2 1 1 1 1 1 2 1 1 1 3 2 2 1 2 1 1 1 2 2 2 3 3 3 2 2 4 6 6 7 8 8 8 7 7 7 8 8 7 7
1 2 2 2 1 1 1 1 1 1 2 0 1 0 2 3 2 1 2 1 0 1 2 2 2 3 3 2 3 3 4 4 4 6 6 7 7 7 7 8 8 8 7
1 1 1 1 1 1 1 1 1 1 1 1 1 0 0 1 2 2 1 2 2 1 1 1 1 2 2 3 3 3 4 4 5 5 5 6 6 6 7 7 7 8 8
0 0 1 1 1 1 1 1 1 1 1 1 1 1 1 1 1 2 2 1 1 2 1 1 1 1 2 3 4 4 4 4 5 5 5 5 5 6 6 7 7 7 7
0 1 1 1 0 1 1 1 1 1 1 1 1 1 1 1 2 2 2 1 1 2 2 1 1 1 1 1 2 4 5 5 4 5 5 5 5 5 6 6 6 5 5
1 1 1 1 0 0 1 1 1 0 1 1 0 1 0 0 1 1 2 2 0 2 2 2 1 1 1 1 3 4 3 5 6 6 6 6 6 6 6 5 5 5 4
1 1 1 1 1 1 1 1 1 0 1 0 0 0 0 1 0 0 1 2 3 1 2 3 2 2 2 2 2 2 2 5 7 8 7 7 6 6 6 5 5 5 5
0 1 1 1 1 1 1 1 1 0 1 0 0 0 0 1 1 0 0 1 2 3 2 2 2 2 2 1 1 2 3 4 5 6 7 6 6 6 6 6 5 5 5
0 1 1 1 1 1 1 1 0 1 1 0 0 1 0 0 0 0 0 0 1 2 2 2 1 1 1 2 2 2 1 2 2 5 5 6 6 6 6 6 5 5 5
1 1 1 1 1 1 1 1 0 0 1 0 0 1 1 1 1 1 0 0 0 1 2 2 2 1 2 2 1 1 2 2 2 4 5 5 5 5 5 5 5 5 4
1 0 1 1 1 1 0 0 1 1 1 0 0 0 1 0 1 1 0 0 0 1 0 1 2 1 2 1 1 2 2 2 2 1 2 3 3 3 3 4 5 5 5
2 1 0 1 1 1 0 1 0 1 1 0 0 1 1 1 1 1 0 0 0 1 0 0 1 2 2 2 1 1 2 2 3 2 2 2 2 3 3 4 4 4 4
2 2 1 1 1 1 0 0 0 1 1 0 0 1 1 0 1 0 0 1 1 1 0 0 1 1 2 1 1 1 2 2 3 1 1 1 1 2 2 4 4 4 5
2 1 1 1 0 1 0 1 1 0 1 1 1 1 0 1 1 1 1 0 1 2 2 1 1 2 3 2 2 2 1 1 3 2 1 3 1 2 3 3 4 5 5
1 1 1 2 1 1 1 1 1 1 1 1 2 1 1 1 0 1 2 2 2 2 3 3 3 4 3 3 2 2 2 2 3 3 1 2 2 3 3 3 4 4 4
1 2 2 1 1 2 1 1 1 1 0 1 2 2 2 1 1 0 1 2 2 3 3 2 4 5 4 4 3 3 3 3 3 2 1 2 2 2 3 2 3 4 3
1 2 2 2 2 2 1 1 1 1 0 2 2 2 2 2 3 1 0 1 3 4 5 4 5 5 6 5 3 1 0 0 2 3 1 1 2 2 2 2 3 3 3
2 2 1 2 2 2 1 0 2 1 1 2 2 2 3 3 3 2 2 2 3 4 4 4 4 4 4 4 4 3 3 2 2 3 2 1 1 0 2 2 2 2 2
Wind_Direction
115 115 114 109 113 119 126 135 143 144 149 153 152 143 142 145 150 158 170 177 181 182 184 186 185 187 188 192 197 197 198 201 202 198 198 201 203 203 207 209 214 215 214
117 118 114 113 122 140 138 139 150 144 132 124 130 136 145 151 156 161 169 179 183 186 189 190 191 195 197 201 206 206 208 209 208 206 205 208 208 208 211 214 218 220 217
108 109 109 99 109 116 114 111 99 91 102 109 120 141 149 149 157 163 167 175 188 195 196 196 197 201 205 209 213 215 214 212 211 208 207 210 211 209 213 217 220 222 221
113 106 95 90 78 85 93 103 98 87 85 108 123 159 155 156 165 170 172 180 190 202 209 208 208 210 213 218 220 220 221 218 213 208 208 210 212 214 218 222 225 224 223
103 106 103 100 92 89 97 114 102 119 123 129 143 159 166 171 174 176 184 191 197 210 212 218 219 221 222 223 225 223 223 222 213 213 211 212 214 216 219 223 228 230 230
101 105 104 92 93 89 75 100 121 115 151 168 139 95 242 215 186 182 191 190 200 210 214 224 227 231 229 225 225 226 225 219 216 216 217 218 218 219 222 225 228 229 231
110 106 102 86 94 111 147 131 113 101 88 103 80 33 355 343 243 193 187 178 197 206 202 216 222 229 234 232 236 236 229 222 218 217 217 217 217 218 221 221 224 226 226
130 120 116 114 115 107 75 73 99 102 172 137 123 100 10 351 343 265 197 196 205 206 207 212 214 218 222 221 240 237 236 232 225 220 219 218 218 219 222 224 225 227 228
106 106 117 121 126 131 133 135 127 135 182 279 157 148 150 214 301 330 300 220 198 198 212 218 214 215 205 205 232 237 231 232 227 226 224 221 217 215 220 226 226 228 228
109 128 131 136 139 137 149 206 161 148 143 237 293 192 177 168 156 306 331 323 271 213 218 225 223 208 197 201 212 211 224 231 226 225 224 225 222 221 226 230 231 229 226
84 131 130 133 134 144 170 186 141 120 145 173 193 204 113 107 143 155 260 313 339 326 271 232 203 197 188 191 197 193 196 206 214 223 228 232 227 225 230 234 238 238 234
13 241 134 137 157 178 185 183 166 141 156 158 170 155 156 162 174 159 191 242 287 301 305 278 217 209 203 206 204 194 202 206 215 220 224 228 229 229 233 236 239 240 240
236 247 187 175 184 205 178 144 119 137 153 143 166 172 183 206 182 158 155 202 260 289 319 324 276 242 215 211 222 204 210 203 204 218 221 225 228 229 235 238 237 238 241
203 191 168 150 117 101 137 129 114 129 105 110 89 124 155 278 172 163 164 156 252 320 324 288 308 274 246 226 232 224 223 206 204 217 222 225 228 230 232 233 231 232 233
179 180 174 153 138 99 111 123 108 136 99 96 84 80 78 316 43 133 157 166 166 225 283 274 282 284 257 239 239 237 237 216 212 219 222 224 228 228 224 226 227 228 228
192 144 97 101 87 80 98 123 131 101 103 261 167 86 333 304 7 9 190 184 163 171 235 263 254 270 275 272 246 251 247 237 227 228 226 225 229 228 222 222 222 219 222
119 115 115 101 79 57 75 106 140 140 136 312 350 66 327 336 11 339 353 134 165 156 213 280 279 292 301 292 305 286 271 254 247 230 222 224 229 230 227 222 218 215 219
137 154 133 115 102 74 45 91 139 99 132 138 341 45 341 7 13 344 36 37 244 173 169 251 294 313 295 276 272 282 288 277 263 237 225 226 230 227 220 213 211 212 213
120 123 120 129 128 118 106 131 143 130 125 152 153 138 279 52 350 310 2 24 311 22 122 193 271 289 295 312 336 323 316 307 291 256 230 236 236 217 213 213 212 214 214
148 190 192 157 161 154 166 252 172 137 150 175 197 198 245 201 213 252 346 107 83 53 25 230 277 293 286 298 359 322 318 308 296 300 295 260 251 241 239 233 222 215 217
167 186 189 169 177 165 187 157 172 136 149 191 299 274 264 126 96 161 89 186 153 157 180 233 277 298 293 312 299 275 288 298 291 284 305 289 273 265 256 252 236 224 220
164 174 180 179 180 262 314 134 162 181 198 197 241 282 300 49 3 351 337 311 160 177 191 199 240 255 266 264 273 285 287 321 301 290 255 277 243 254 256 243 239 228 223
178 178 190 168 199 263 254 195 166 172 212 218 211 210 258 349 4 341 331 344 320 287 222 200 216 236 242 242 239 271 264 253 255 267 235 273 270 265 261 253 240 233 227
197 203 208 198 220 257 243 204 140 135 223 245 218 204 200 250 282 273 297 323 301 288 265 230 215 235 245 237 221 229 238 259 277 280 200 251 268 266 281 271 251 235 232
208 214 198 185 219 262 276 207 152 155 287 285 262 234 214 228 272 284 212 290 303 298 290 283 264 261 263 263 241 184 234 264 288 285 256 216 260 273 284 277 263 245 244
207 207 199 203 215 242 280 241 155 161 228 281 284 267 257 265 274 259 219 230 270 280 294 306 301 295 280 274 257 207 197 205 246 274 257 206 256 289 299 285 272 257 250